星链-11462 (STARLINK-11462)

导读 | 豆包AI

STARLINK-11462是美国于2024年12月23日发射的星链系列卫星,隶属于SpaceX公司打造的星链星座系统。星链旨在构建全球覆盖的卫星互联网,为偏远地区、海洋等场景提供高速网络服务。该卫星加入后进一步扩充了星链星座规模,推动全球卫星通信网络的覆盖能力提升,助力SpaceX完成低轨互联网星座组网目标。

基本信息
目录编号:
62412
目录名称:
STARLINK-11462
国际标识:
2024-249D
轨道中心:
EARTH
卫星名称:
星链-11462
卫星全名:
星链-11462 (STARLINK-11462)
卫星状态:
在轨 (已飞行447 天)
发射日期:
2024-12-23 UTC
国别 :
美国 (US)
星等 :
--
轨道信息
数据来源 国际轨道数据
星历时间: 2026-03-14T21:00:48+0800
14小时前
查看轨道信息
半长轴: 6734.501km
偏心率: 0.0002136
轨道倾角: 43.001°
近地点辐角 286.395°
升交点赤经 138.418°
平近点角 73.668°
近地点: 354.925km
远地点: 357.803km
周期: 91.668分钟
每日圈数: 15.708859
详细信息
固有亮度:
5
最大亮度:
2.5
卫星平台:
Starlink V1.0
覆盖范围:
全球
运营商:
太空探索技术公司
运营商所在国:
美国
制造商(研发单位):
太空探索技术公司
制造商所在国:
美国
使用方式:
暂无
卫星简介
Starlink 计划是 SpaceX 推出的全球卫星互联网项目,通过发射低轨道卫星,为全球尤其是偏远地区提供高速、低延迟的互联网服务。自 2019 年起,Starlink 已部署数千颗卫星,旨在缩小全球数字鸿沟,推动互联网普及。该项目还为军事、航空等行业提供通信支持,带来广泛经济效益。
2D轨道图
3D轨道图
轨道高度分析图
轨道倾角分析图
轨道综合分析图
查看轨道综合分析图